When you browse on this site, cookies collect data to enhance your experience and personalize the content and advertising you see.
Visit our Privacy Policy to learn more. By continuing to use the site, you agree to this use of cookies and data.
  • In Hungary
  • List of Countries
  • For 7 days
  • Water Temperature
  • Weather Map
  • News
  • Weather Widgets
  • user-avatar
    Login

    Hourly Weather Sezze

    Today, 12 November, Tuesday

    Time Temperature Precipitation Wind Pressure Humidity
    00:00 +14°C° 0 mm 2 mps 735 mmHg 77%
    01:00 +13°C° 0 mm 3 mps 735 mmHg 75%
    02:00 +13°C° 0 mm 3 mps 734 mmHg 76%
    03:00 +14°C° 0 mm 2 mps 733 mmHg 76%
    04:00 +14°C° 0 mm 1 mps 732 mmHg 76%
    05:00 +14°C° 0 mm 2 mps 731 mmHg 76%
    06:00 +14°C° 0 mm 2 mps 731 mmHg 75%
    07:00 +13°C° 0 mm 3 mps 730 mmHg 76%
    08:00 +15°C° 0 mm 2 mps 730 mmHg 74%
    09:00 +16°C° 0 mm 2 mps 729 mmHg 73%
    10:00 +18°C° 0 mm 1 mps 728 mmHg 72%
    11:00 +17°C° 0.3 mm 2 mps 728 mmHg 73%
    12:00 +17°C° 0.3 mm 3 mps 727 mmHg 75%
    13:00 +17°C° 0.3 mm 3 mps 727 mmHg 77%
    14:00 +15°C° 2.8 mm 5 mps 727 mmHg 78%
    15:00 +14°C° 2.8 mm 6 mps 726 mmHg 80%
    16:00 +12°C° 2.8 mm 7 mps 726 mmHg 82%
    17:00 +11°C° 1.7 mm 7 mps 727 mmHg 85%
    18:00 +11°C° 1.7 mm 7 mps 727 mmHg 87%
    19:00 +11°C° 1.7 mm 7 mps 727 mmHg 89%
    20:00 +11°C° 2.5 mm 7 mps 727 mmHg 89%
    21:00 +11°C° 2.5 mm 6 mps 727 mmHg 88%
    22:00 +13°C° 2.5 mm 6 mps 727 mmHg 88%
    23:00 +13°C° 1.2 mm 6 mps 727 mmHg 88%

    Tomorrow, 13 November, Wednesday

    Time Temperature Precipitation Wind Pressure Humidity
    00:00 +13°C° 1.2 mm 5 mps 727 mmHg 87%
    01:00 +13°C° 1.2 mm 5 mps 726 mmHg 87%
    02:00 +12°C° 0.9 mm 4 mps 726 mmHg 88%
    03:00 +12°C° 0.9 mm 3 mps 726 mmHg 89%
    04:00 +13°C° 0.9 mm 2 mps 726 mmHg 90%
    05:00 +13°C° 0.2 mm 2 mps 726 mmHg 89%
    06:00 +13°C° 0.2 mm 1 mps 727 mmHg 88%
    07:00 +13°C° 0.2 mm 1 mps 728 mmHg 87%
    08:00 +13°C° 0.2 mm 1 mps 728 mmHg 87%
    09:00 +14°C° 0.2 mm 1 mps 729 mmHg 87%
    10:00 +14°C° 0.2 mm 1 mps 730 mmHg 86%
    11:00 +15°C° 0.2 mm 2 mps 731 mmHg 85%
    12:00 +14°C° 0.2 mm 3 mps 732 mmHg 84%
    13:00 +14°C° 0.2 mm 4 mps 732 mmHg 82%
    14:00 +14°C° 0.3 mm 4 mps 733 mmHg 80%
    15:00 +14°C° 0.3 mm 5 mps 733 mmHg 78%
    16:00 +13°C° 0.3 mm 5 mps 734 mmHg 75%
    17:00 +13°C° 0 mm 4 mps 734 mmHg 76%
    18:00 +12°C° 0 mm 3 mps 735 mmHg 76%
    19:00 +13°C° 0 mm 2 mps 736 mmHg 77%
    20:00 +13°C° 0.3 mm 2 mps 736 mmHg 79%
    21:00 +12°C° 0.3 mm 2 mps 736 mmHg 81%
    22:00 +12°C° 0.3 mm 2 mps 736 mmHg 84%
    23:00 +12°C° 1 mm 2 mps 736 mmHg 86%

    Day after tomorrow, 14 November, Thursday

    Time Temperature Precipitation Wind Pressure Humidity
    00:00 +11°C° 1 mm 3 mps 736 mmHg 88%
    01:00 +11°C° 1 mm 4 mps 736 mmHg 90%
    02:00 +11°C° 1.6 mm 4 mps 735 mmHg 91%
    03:00 +11°C° 1.6 mm 4 mps 735 mmHg 92%
    04:00 +10°C° 1.6 mm 5 mps 735 mmHg 93%
    05:00 +12°C° 2.9 mm 5 mps 735 mmHg 93%
    06:00 +12°C° 2.9 mm 5 mps 735 mmHg 93%
    07:00 +13°C° 2.9 mm 5 mps 735 mmHg 94%
    08:00 +13°C° 2.9 mm 5 mps 736 mmHg 93%
    09:00 +13°C° 2.9 mm 4 mps 736 mmHg 92%
    10:00 +13°C° 2.9 mm 3 mps 736 mmHg 91%
    11:00 +14°C° 0.7 mm 3 mps 736 mmHg 89%
    12:00 +15°C° 0.7 mm 2 mps 737 mmHg 88%
    13:00 +15°C° 0.7 mm 2 mps 737 mmHg 87%
    14:00 +15°C° 0.1 mm 2 mps 737 mmHg 87%
    15:00 +15°C° 0.1 mm 2 mps 737 mmHg 86%
    16:00 +15°C° 0.1 mm 2 mps 737 mmHg 86%
    17:00 +14°C° 0 mm 2 mps 737 mmHg 87%
    18:00 +14°C° 0 mm 2 mps 737 mmHg 88%
    19:00 +14°C° 0 mm 2 mps 738 mmHg 89%
    20:00 +13°C° 0 mm 3 mps 738 mmHg 87%
    21:00 +13°C° 0 mm 3 mps 738 mmHg 86%
    22:00 +13°C° 0 mm 4 mps 738 mmHg 85%
    23:00 +13°C° 0 mm 4 mps 738 mmHg 84%

    15 November, Friday

    Time Temperature Precipitation Wind Pressure Humidity
    00:00 +12°C° 0 mm 4 mps 738 mmHg 83%
    01:00 +12°C° 0 mm 3 mps 738 mmHg 83%
    02:00 +12°C° 0 mm 4 mps 738 mmHg 83%
    03:00 +12°C° 0 mm 4 mps 738 mmHg 83%
    04:00 +12°C° 0 mm 4 mps 737 mmHg 83%
    05:00 +12°C° 0.1 mm 4 mps 737 mmHg 83%
    06:00 +12°C° 0.1 mm 5 mps 737 mmHg 84%
    07:00 +12°C° 0.1 mm 5 mps 737 mmHg 84%
    08:00 +13°C° 0.3 mm 6 mps 738 mmHg 83%
    09:00 +14°C° 0.3 mm 7 mps 738 mmHg 83%
    10:00 +14°C° 0.3 mm 7 mps 738 mmHg 82%
    11:00 +15°C° 0.6 mm 7 mps 738 mmHg 82%
    12:00 +15°C° 0.6 mm 7 mps 738 mmHg 83%
    13:00 +15°C° 0.6 mm 7 mps 738 mmHg 83%
    14:00 +15°C° 1.3 mm 7 mps 737 mmHg 84%
    15:00 +15°C° 1.3 mm 7 mps 737 mmHg 86%
    16:00 +15°C° 1.3 mm 7 mps 737 mmHg 87%
    17:00 +15°C° 2 mm 7 mps 738 mmHg 88%
    18:00 +14°C° 2 mm 6 mps 738 mmHg 90%
    19:00 +14°C° 2 mm 5 mps 739 mmHg 91%
    20:00 +14°C° 1.6 mm 4 mps 739 mmHg 92%
    21:00 +15°C° 1.6 mm 2 mps 739 mmHg 92%
    22:00 +14°C° 1.6 mm 1 mps 740 mmHg 92%
    23:00 +14°C° 0.5 mm 1 mps 740 mmHg 92%

    16 November, Saturday

    Time Temperature Precipitation Wind Pressure Humidity
    00:00 +14°C° 0.5 mm 1 mps 740 mmHg 92%
    01:00 +14°C° 0.5 mm 1 mps 741 mmHg 92%
    02:00 +14°C° 0.5 mm 1 mps 741 mmHg 92%
    03:00 +14°C° 0.5 mm 1 mps 741 mmHg 92%
    04:00 +14°C° 0.5 mm 1 mps 741 mmHg 92%
    05:00 +14°C° 0.4 mm 1 mps 741 mmHg 92%
    06:00 +14°C° 0.4 mm 1 mps 741 mmHg 92%
    07:00 +14°C° 0.4 mm 1 mps 741 mmHg 92%
    08:00 +14°C° 0.7 mm 2 mps 741 mmHg 91%
    09:00 +14°C° 0.7 mm 3 mps 741 mmHg 89%
    10:00 +15°C° 0.7 mm 4 mps 741 mmHg 88%
    11:00 +15°C° 0.4 mm 4 mps 740 mmHg 84%
    12:00 +16°C° 0.4 mm 5 mps 740 mmHg 81%
    13:00 +17°C° 0.4 mm 6 mps 739 mmHg 78%
    14:00 +16°C° 0.8 mm 6 mps 739 mmHg 80%
    15:00 +16°C° 0.8 mm 6 mps 738 mmHg 81%
    16:00 +15°C° 0.8 mm 6 mps 738 mmHg 83%
    17:00 +15°C° 0.4 mm 6 mps 737 mmHg 83%
    18:00 +14°C° 0.4 mm 6 mps 737 mmHg 83%
    19:00 +14°C° 0.4 mm 6 mps 737 mmHg 83%
    20:00 +14°C° 0.5 mm 6 mps 736 mmHg 84%
    21:00 +13°C° 0.5 mm 6 mps 736 mmHg 84%
    22:00 +13°C° 0.5 mm 6 mps 736 mmHg 85%
    23:00 +13°C° 0.3 mm 6 mps 735 mmHg 83%

    17 November, Sunday

    Time Temperature Precipitation Wind Pressure Humidity
    00:00 +14°C° 0.3 mm 7 mps 734 mmHg 81%
    01:00 +14°C° 0.3 mm 7 mps 733 mmHg 79%
    02:00 +13°C° 0.7 mm 8 mps 732 mmHg 78%
    03:00 +13°C° 0.7 mm 9 mps 731 mmHg 78%
    04:00 +13°C° 0.7 mm 10 mps 729 mmHg 77%
    05:00 +13°C° 5.6 mm 10 mps 729 mmHg 78%
    06:00 +13°C° 5.6 mm 11 mps 728 mmHg 78%
    07:00 +13°C° 5.6 mm 12 mps 727 mmHg 79%
    08:00 +13°C° 0.8 mm 12 mps 728 mmHg 80%
    09:00 +13°C° 0.8 mm 12 mps 728 mmHg 81%
    10:00 +13°C° 0.8 mm 12 mps 728 mmHg 81%
    11:00 +12°C° 0.9 mm 11 mps 729 mmHg 82%
    12:00 +12°C° 0.9 mm 11 mps 730 mmHg 83%
    13:00 +11°C° 0.9 mm 11 mps 730 mmHg 84%
    14:00 +11°C° 1.5 mm 10 mps 731 mmHg 85%
    15:00 +11°C° 1.5 mm 9 mps 732 mmHg 85%
    16:00 +10°C° 1.5 mm 9 mps 733 mmHg 85%
    17:00 +10°C° 0.9 mm 8 mps 734 mmHg 84%
    18:00 +10°C° 0.9 mm 7 mps 735 mmHg 83%
    19:00 +10°C° 0.9 mm 6 mps 736 mmHg 82%
    20:00 +10°C° 0.4 mm 6 mps 737 mmHg 81%
    21:00 +10°C° 0.4 mm 6 mps 737 mmHg 81%
    22:00 +10°C° 0.4 mm 6 mps 738 mmHg 80%
    23:00 +10°C° 0.2 mm 5 mps 738 mmHg 79%
    Show more